| time (UTC) | temp F | wind direction | speed knots | gust knots | rain 1hr in | rain 24hr in | rain mn in | humidity % | barometer mb |
| 20260506113704 | 63 | 190 | 0.9 | 6.1 | 0.00 | 0.00 | 0.00 | 80 | 1008.7 |
| 20260506113204 | 63 | 202 | 0.9 | 7.0 | 0.00 | 0.00 | 0.00 | 80 | 1008.7 |
| 20260506112704 | 63 | 189 | 1.7 | 4.3 | 0.00 | 0.00 | 0.00 | 80 | 1008.8 |
| 20260506110704 | 62 | 156 | 0.9 | 2.6 | 0.00 | 0.00 | 0.00 | 82 | 1008.7 |
| 20260506110205 | 61 | 154 | 0.9 | 4.3 | 0.00 | 0.00 | 0.00 | 83 | 1008.7 |
| 20260506105203 | 61 | 182 | 0.9 | 2.6 | 0.00 | 0.00 | 0.00 | 83 | 1008.8 |
| 20260506104204 | 61 | 163 | 0.9 | 2.6 | 0.00 | 0.00 | 0.00 | 82 | 1008.9 |
| 20260506103204 | 61 | 174 | 0.9 | 6.1 | 0.00 | 0.00 | 0.00 | 82 | 1008.8 |
| 20260506102704 | 61 | 163 | 0.0 | 1.7 | 0.00 | 0.00 | 0.00 | 82 | 1008.7 |
| 20260506102205 | 61 | 164 | 0.9 | 2.6 | 0.00 | 0.00 | 0.00 | 83 | 1008.6 |
| 20260506101204 | 60 | 164 | 0.0 | 1.7 | 0.00 | 0.00 | 0.00 | 82 | 1008.8 |
| 20260506100204 | 60 | 164 | 0.0 | 1.7 | 0.00 | 0.00 | 0.00 | 82 | 1008.8 |
| 20260506095204 | 61 | 165 | 0.9 | 1.7 | 0.00 | 0.00 | 0.00 | 82 | 1008.7 |
| 20260506094704 | 61 | 161 | 0.0 | 1.7 | 0.00 | 0.00 | 0.00 | 81 | 1008.7 |
| 20260506093704 | 61 | 157 | 0.0 | 0.9 | 0.00 | 0.00 | 0.00 | 81 | 1008.5 |
| 20260506092704 | 61 | 182 | 0.0 | 1.7 | 0.00 | 0.00 | 0.00 | 81 | 1008.8 |
| 20260506090704 | 61 | 126 | 0.9 | 2.6 | 0.00 | 0.00 | 0.00 | 80 | 1008.6 |
| 20260506085204 | 61 | 171 | 0.0 | 2.6 | 0.00 | 0.00 | 0.00 | 79 | 1008.7 |
| 20260506083704 | 62 | 200 | 0.0 | 0.9 | 0.00 | 0.00 | 0.00 | 78 | 1008.7 |
| 20260506080704 | 62 | 192 | 0.9 | 2.6 | 0.00 | 0.00 | 0.00 | 77 | 1008.6 |
| 20260506073204 | 63 | 172 | 0.0 | 1.7 | 0.00 | 0.00 | 0.00 | 75 | 1008.5 |
| 20260506072704 | 63 | 172 | 0.9 | 2.6 | 0.00 | 0.00 | 0.00 | 74 | 1008.5 |
| 20260506071205 | 63 | 194 | 0.9 | 4.3 | 0.00 | 0.00 | 0.00 | 74 | 1008.2 |
| 20260506061204 | 63 | 192 | 0.0 | 2.6 | 0.00 | 0.00 | 0.00 | 71 | 1008.0 |
| 20260506060705 | 64 | 209 | 0.9 | 1.7 | 0.00 | 0.00 | 0.00 | 71 | 1008.0 |
| 20260506060204 | 64 | 169 | 0.0 | 1.7 | 0.00 | 0.00 | 0.00 | 71 | 1008.0 |
| 20260506044704 | 63 | 163 | 0.0 | 1.7 | 0.00 | 0.00 | 0.00 | 69 | 1008.7 |
| 20260506044203 | 64 | 163 | 0.0 | 1.7 | 0.00 | 0.00 | 0.00 | 69 | 1008.6 |
| 20260506043704 | 64 | 163 | 0.0 | 1.7 | 0.00 | 0.00 | 0.00 | 69 | 1008.7 |
| 20260506042704 | 64 | 163 | 0.0 | 0.9 | 0.00 | 0.00 | 0.00 | 68 | 1008.6 |
| 20260506042204 | 64 | 163 | 0.9 | 2.6 | 0.00 | 0.00 | 0.00 | 67 | 1008.6 |
| 20260506041703 | 65 | 180 | 0.9 | 1.7 | 0.00 | 0.00 | 0.00 | 67 | 1008.5 |
| 20260506041204 | 65 | 180 | 0.0 | 2.6 | 0.00 | 0.00 | 0.00 | 66 | 1008.6 |
| 20260506040704 | 65 | 189 | 1.7 | 6.1 | 0.00 | 0.00 | 0.00 | 66 | 1008.6 |
| 20260506035704 | 65 | 188 | 1.7 | 6.1 | 0.00 | 0.00 | 0.00 | 66 | 1008.6 |
| 20260506035204 | 65 | 193 | 0.9 | 2.6 | 0.00 | 0.00 | 0.00 | 65 | 1008.5 |
| 20260506034704 | 65 | 193 | 0.9 | 1.7 | 0.00 | 0.00 | 0.00 | 65 | 1008.5 |
| 20260506033704 | 66 | 157 | 1.7 | 5.2 | 0.00 | 0.00 | 0.00 | 64 | 1008.4 |
| 20260506031204 | 67 | 195 | 0.0 | 2.6 | 0.00 | 0.00 | 0.00 | 64 | 1008.5 |
| 20260506030703 | 67 | 194 | 0.0 | 6.1 | 0.00 | 0.00 | 0.00 | 64 | 1008.5 |
| 20260506025704 | 67 | 211 | 0.9 | 2.6 | 0.00 | 0.00 | 0.00 | 63 | 1008.4 |
| 20260506025204 | 67 | 212 | 0.9 | 2.6 | 0.00 | 0.00 | 0.00 | 63 | 1008.4 |
| 20260506023704 | 68 | 192 | 0.9 | 2.6 | 0.00 | 0.00 | 0.00 | 61 | 1008.3 |
| 20260506022704 | 68 | 183 | 0.9 | 2.6 | 0.00 | 0.00 | 0.00 | 60 | 1008.3 |
| 20260506020704 | 69 | 207 | 0.9 | 1.7 | 0.00 | 0.00 | 0.00 | 58 | 1008.4 |
| 20260506020203 | 70 | 208 | 0.0 | 2.6 | 0.00 | 0.00 | 0.00 | 58 | 1008.3 |
| 20260506015704 | 70 | 195 | 0.9 | 2.6 | 0.00 | 0.00 | 0.00 | 58 | 1008.3 |
| 20260506013704 | 71 | 172 | 0.9 | 4.3 | 0.00 | 0.00 | 0.00 | 57 | 1008.2 |
| 20260506013203 | 71 | 175 | 0.9 | 2.6 | 0.00 | 0.00 | 0.00 | 56 | 1008.2 |
| 20260506012704 | 71 | 155 | 0.0 | 1.7 | 0.00 | 0.00 | 0.00 | 56 | 1008.1 |
| 20260506004704 | 72 | 179 | 1.7 | 2.6 | 0.00 | 0.00 | 0.00 | 53 | 1007.5 |
| 20260506003705 | 72 | 182 | 2.6 | 6.1 | 0.00 | 0.00 | 0.00 | 53 | 1007.2 |
| 20260506002704 | 72 | 182 | 2.6 | 5.2 | 0.00 | 0.00 | 0.00 | 53 | 1006.8 |
| 20260506000705 | 73 | 180 | 1.7 | 4.3 | 0.00 | 0.00 | 0.00 | 52 | 1006.2 |
| 20260506000205 | 73 | 150 | 0.9 | 2.6 | 0.00 | 0.00 | 0.00 | 50 | 1006.2 |
| 20260505235705 | 74 | 191 | 1.7 | 2.6 | 0.00 | 0.00 | 0.00 | 50 | 1006.1 |
| 20260505234705 | 75 | 175 | 0.9 | 7.0 | 0.00 | 0.00 | 0.00 | 49 | 1005.9 |
| 20260505234204 | 75 | 180 | 1.7 | 6.1 | 0.00 | 0.00 | 0.00 | 49 | 1005.9 |
| 20260505233705 | 75 | 172 | 0.9 | 4.3 | 0.00 | 0.00 | 0.00 | 49 | 1005.7 |
| 20260505232706 | 76 | 194 | 1.7 | 6.1 | 0.00 | 0.00 | 0.00 | 48 | 1005.6 |
| 20260505230706 | 77 | 197 | 2.6 | 5.2 | 0.00 | 0.00 | 0.00 | 46 | 1005.2 |
| 20260505225705 | 78 | 257 | 0.9 | 2.6 | 0.00 | 0.00 | 0.00 | 46 | 1005.0 |
| 20260505225204 | 78 | 199 | 1.7 | 5.2 | 0.00 | 0.00 | 0.00 | 45 | 1005.0 |
| 20260505224705 | 79 | 184 | 1.7 | 6.1 | 0.00 | 0.00 | 0.00 | 43 | 1005.0 |
| 20260505224205 | 79 | 193 | 2.6 | 5.2 | 0.00 | 0.00 | 0.00 | 43 | 1004.9 |
| 20260505223705 | 79 | 177 | 4.3 | 6.1 | 0.00 | 0.00 | 0.00 | 43 | 1004.8 |
| 20260505222204 | 80 | 181 | 2.6 | 7.8 | 0.00 | 0.00 | 0.00 | 41 | 1004.5 |
| 20260505221705 | 81 | 189 | 2.6 | 6.1 | 0.00 | 0.00 | 0.00 | 41 | 1004.3 |
| 20260505221205 | 81 | 211 | 2.6 | 6.1 | 0.00 | 0.00 | 0.00 | 41 | 1004.2 |
| 20260505220205 | 81 | 183 | 2.6 | 7.8 | 0.00 | 0.00 | 0.00 | 38 | 1004.0 |
| 20260505215704 | 81 | 197 | 2.6 | 7.8 | 0.00 | 0.00 | 0.00 | 39 | 1004.0 |
| 20260505215205 | 82 | 226 | 3.5 | 8.7 | 0.00 | 0.00 | 0.00 | 37 | 1004.0 |
| 20260505214705 | 82 | 192 | 1.7 | 13.0 | 0.00 | 0.00 | 0.00 | 36 | 1003.9 |
| 20260505214205 | 82 | 186 | 2.6 | 10.4 | 0.00 | 0.00 | 0.00 | 36 | 1003.9 |
| 20260505213705 | 82 | 162 | 3.5 | 8.7 | 0.00 | 0.00 | 0.00 | 36 | 1003.7 |
| 20260505212705 | 83 | 223 | 2.6 | 7.8 | 0.00 | 0.00 | 0.00 | 35 | 1003.7 |
| 20260505211205 | 83 | 211 | 3.5 | 10.4 | 0.00 | 0.00 | 0.00 | 33 | 1003.8 |
| 20260505210204 | 84 | 189 | 2.6 | 10.4 | 0.00 | 0.00 | 0.00 | 34 | 1003.8 |
| 20260505205705 | 84 | 253 | 4.3 | 10.4 | 0.00 | 0.00 | 0.00 | 32 | 1003.7 |
| 20260505204705 | 84 | 169 | 4.3 | 7.8 | 0.00 | 0.00 | 0.00 | 31 | 1003.6 |
| 20260505201204 | 84 | 211 | 3.5 | 6.1 | 0.00 | 0.00 | 0.00 | 36 | 1003.8 |
| 20260505200205 | 84 | 240 | 3.5 | 7.8 | 0.00 | 0.00 | 0.00 | 38 | 1003.8 |
| 20260505195204 | 84 | 190 | 2.6 | 7.8 | 0.00 | 0.00 | 0.00 | 35 | 1003.7 |
| 20260505194705 | 84 | 161 | 2.6 | 7.0 | 0.00 | 0.00 | 0.00 | 35 | 1003.7 |
| 20260505193704 | 84 | 212 | 2.6 | 6.1 | 0.00 | 0.00 | 0.00 | 36 | 1003.9 |
| 20260505192704 | 85 | 150 | 1.7 | 8.7 | 0.00 | 0.00 | 0.00 | 36 | 1003.9 |
| 20260505192205 | 85 | 199 | 3.5 | 8.7 | 0.00 | 0.00 | 0.00 | 36 | 1003.9 |
| 20260505191704 | 84 | 192 | 2.6 | 7.0 | 0.00 | 0.00 | 0.00 | 37 | 1004.0 |
| 20260505191205 | 84 | 226 | 2.6 | 7.0 | 0.00 | 0.00 | 0.00 | 38 | 1004.1 |
| 20260505190704 | 84 | 231 | 1.7 | 8.7 | 0.00 | 0.00 | 0.00 | 37 | 1004.3 |
| 20260505190205 | 84 | 167 | 4.3 | 14.8 | 0.00 | 0.00 | 0.00 | 37 | 1004.4 |
| 20260505185705 | 84 | 201 | 2.6 | 13.0 | 0.00 | 0.00 | 0.00 | 37 | 1004.3 |
| 20260505183704 | 84 | 185 | 2.6 | 5.2 | 0.00 | 0.00 | 0.00 | 38 | 1004.9 |
| 20260505183205 | 84 | 191 | 2.6 | 5.2 | 0.00 | 0.00 | 0.00 | 39 | 1005.0 |
| 20260505181704 | 83 | 241 | 2.6 | 7.0 | 0.00 | 0.00 | 0.00 | 40 | 1005.0 |
| 20260505180705 | 83 | 231 | 3.5 | 8.7 | 0.00 | 0.00 | 0.00 | 39 | 1005.1 |
| 20260505175704 | 83 | 189 | 4.3 | 7.0 | 0.00 | 0.00 | 0.00 | 40 | 1005.3 |
| 20260505175205 | 83 | 178 | 3.5 | 11.3 | 0.00 | 0.00 | 0.00 | 40 | 1005.4 |
| 20260505174205 | 83 | 252 | 2.6 | 10.4 | 0.00 | 0.00 | 0.00 | 41 | 1005.6 |
| 20260505173204 | 83 | 210 | 4.3 | 7.0 | 0.00 | 0.00 | 0.00 | 41 | 1005.6 |
| 20260505172704 | 82 | 215 | 2.6 | 6.1 | 0.00 | 0.00 | 0.00 | 40 | 1005.6 |
| 20260505172204 | 82 | 192 | 0.9 | 5.2 | 0.00 | 0.00 | 0.00 | 42 | 1005.7 |
| 20260505171704 | 82 | 194 | 2.6 | 6.1 | 0.00 | 0.00 | 0.00 | 41 | 1005.8 |
| 20260505171205 | 81 | 190 | 1.7 | 7.0 | 0.00 | 0.00 | 0.00 | 43 | 1005.9 |
| 20260505170705 | 81 | 185 | 2.6 | 5.2 | 0.00 | 0.00 | 0.00 | 43 | 1006.1 |
| 20260505164704 | 81 | 179 | 2.6 | 5.2 | 0.00 | 0.00 | 0.00 | 43 | 1006.4 |
| 20260505163704 | 81 | 138 | 3.5 | 7.0 | 0.00 | 0.00 | 0.00 | 43 | 1006.5 |
| 20260505162704 | 80 | 208 | 2.6 | 10.4 | 0.00 | 0.00 | 0.00 | 44 | 1006.6 |
| 20260505161204 | 79 | 131 | 1.7 | 2.6 | 0.00 | 0.00 | 0.00 | 46 | 1007.0 |
| 20260505160704 | 79 | 202 | 0.9 | 4.3 | 0.00 | 0.00 | 0.00 | 47 | 1007.2 |
| 20260505160204 | 78 | 269 | 0.9 | 5.2 | 0.00 | 0.00 | 0.00 | 47 | 1007.3 |
| 20260505151705 | 74 | 189 | 0.9 | 2.6 | 0.00 | 0.00 | 0.00 | 52 | 1008.1 |
| 20260505151204 | 74 | 216 | 0.9 | 2.6 | 0.00 | 0.00 | 0.00 | 53 | 1008.2 |
| 20260505150704 | 74 | 200 | 0.9 | 5.2 | 0.00 | 0.00 | 0.00 | 54 | 1008.2 |
| 20260505150204 | 73 | 249 | 1.7 | 6.1 | 0.00 | 0.00 | 0.00 | 54 | 1008.3 |
| 20260505140204 | 69 | 244 | 1.7 | 4.3 | 0.00 | 0.00 | 0.00 | 60 | 1008.5 |
| 20260505123705 | 62 | 177 | 0.9 | 1.7 | 0.00 | 0.00 | 0.00 | 70 | 1008.6 |
| 20260505123204 | 62 | 177 | 0.9 | 2.6 | 0.00 | 0.00 | 0.00 | 70 | 1008.7 |
| 20260505122704 | 61 | 244 | 1.7 | 2.6 | 0.00 | 0.00 | 0.00 | 72 | 1008.8 |
| 20260505122204 | 61 | 189 | 0.9 | 2.6 | 0.00 | 0.00 | 0.00 | 72 | 1008.9 |
| 20260505120204 | 58 | 258 | 1.7 | 2.6 | 0.00 | 0.00 | 0.00 | 78 | 1009.1 |
| 20260505115704 | 57 | 245 | 0.9 | 4.3 | 0.00 | 0.00 | 0.00 | 79 | 1009.1 |
| 20260505115205 | 57 | 155 | 0.9 | 2.6 | 0.00 | 0.00 | 0.00 | 81 | 1009.0 |